RYR5804 ESMS-EPMO

Flight info

Callsign RYR5804
Flight time N/A
Altitude 37000
Route TELMO DCT KOLOB DCT ELPOL N195 SORIX
Aircraft B738/M-SDE2E3FGHIRWXY/LB1

Departure

Time 2026-05-08 17:30
Airport Malmö Sturup Airport (ESMS)

Arrival

Time N/A
Airport Warsaw Modlin Airport (EPMO)
Time Latitude Longitude Altitude Speed Heading
2026-05-08 17:15 55.54100 13.36850 230 ft 0 kts 173°
2026-05-08 17:20 55.54102 13.36850 230 ft 1 kts 173°
2026-05-08 17:21 55.54112 13.36848 230 ft 3 kts 173°
2026-05-08 17:21 55.54130 13.36844 234 ft 3 kts 165°
2026-05-08 17:21 55.54148 13.36831 231 ft 3 kts 140°
2026-05-08 17:21 55.54160 13.36806 231 ft 3 kts 109°
2026-05-08 17:22 55.54163 13.36780 230 ft 1 kts 84°
2026-05-08 17:22 55.54162 13.36772 230 ft 0 kts 84°
2026-05-08 17:26 55.54163 13.36784 230 ft 4 kts 84°
2026-05-08 17:26 55.54168 13.36864 230 ft 7 kts 84°
2026-05-08 17:26 55.54174 13.36962 230 ft 9 kts 83°
2026-05-08 17:26 55.54189 13.37085 231 ft 10 kts 62°
2026-05-08 17:27 55.54205 13.37161 230 ft 6 kts 80°
2026-05-08 17:27 55.54209 13.37217 230 ft 0 kts 83°
2026-05-08 17:29 55.54209 13.37224 231 ft 3 kts 83°
2026-05-08 17:29 55.54215 13.37309 231 ft 10 kts 83°
2026-05-08 17:29 55.54224 13.37440 238 ft 11 kts 83°
2026-05-08 17:29 55.54213 13.37499 238 ft 3 kts 153°
2026-05-08 17:30 55.54165 13.37511 239 ft 21 kts 174°
2026-05-08 17:30 55.53747 13.37596 239 ft 99 kts 173°
2026-05-08 17:30 55.52836 13.37779 304 ft 156 kts 174°
2026-05-08 17:30 55.51724 13.37958 1028 ft 166 kts 173°
2026-05-08 17:31 55.50543 13.38079 1844 ft 169 kts 174°
2026-05-08 17:31 55.49355 13.38199 2543 ft 182 kts 171°
2026-05-08 17:31 55.47988 13.38497 2855 ft 211 kts 171°
2026-05-08 17:31 55.46435 13.38790 3092 ft 237 kts 172°
2026-05-08 17:32 55.44745 13.39383 3443 ft 256 kts 150°
2026-05-08 17:32 55.43496 13.41518 4262 ft 252 kts 121°
2026-05-08 17:32 55.42537 13.44212 4751 ft 271 kts 120°
2026-05-08 17:32 55.41529 13.47125 5203 ft 287 kts 120°
2026-05-08 17:33 55.40475 13.50161 5917 ft 294 kts 120°
2026-05-08 17:33 55.39399 13.53233 6776 ft 296 kts 120°
2026-05-08 17:33 55.38307 13.56327 7599 ft 300 kts 120°
2026-05-08 17:33 55.37190 13.59470 8407 ft 304 kts 120°
2026-05-08 17:34 55.36055 13.62644 9232 ft 309 kts 121°
2026-05-08 17:34 55.34902 13.65856 10128 ft 312 kts 121°
2026-05-08 17:34 55.33733 13.69099 10922 ft 317 kts 121°
2026-05-08 17:34 55.32525 13.72448 11442 ft 332 kts 121°
2026-05-08 17:35 55.31263 13.75936 12029 ft 343 kts 121°
2026-05-08 17:35 55.29985 13.79459 12778 ft 348 kts 121°
2026-05-08 17:35 55.28672 13.83071 13641 ft 353 kts 122°
2026-05-08 17:35 55.27338 13.86735 14367 ft 360 kts 122°
2026-05-08 17:36 55.25977 13.90465 15134 ft 364 kts 122°
2026-05-08 17:36 55.24604 13.94222 15910 ft 369 kts 122°
2026-05-08 17:36 55.23205 13.98044 16679 ft 374 kts 122°
2026-05-08 17:36 55.21789 14.01908 17461 ft 379 kts 123°
2026-05-08 17:37 55.20371 14.05771 18179 ft 385 kts 123°
2026-05-08 17:37 55.18906 14.09757 18858 ft 390 kts 123°
2026-05-08 17:37 55.17426 14.13775 19554 ft 393 kts 123°
2026-05-08 17:37 55.15936 14.17816 20214 ft 398 kts 123°
2026-05-08 17:38 55.14428 14.21898 20865 ft 401 kts 123°
2026-05-08 17:38 55.12903 14.26020 21516 ft 405 kts 123°
2026-05-08 17:38 55.11380 14.30132 22112 ft 410 kts 123°
2026-05-08 17:38 55.09819 14.34336 22749 ft 414 kts 124°
2026-05-08 17:39 55.08243 14.38574 23368 ft 417 kts 124°
2026-05-08 17:39 55.06650 14.42850 23925 ft 422 kts 124°
2026-05-08 17:39 55.05041 14.47162 24410 ft 425 kts 124°
2026-05-08 17:39 55.03418 14.51505 24932 ft 428 kts 124°
2026-05-08 17:40 55.01780 14.55878 25451 ft 430 kts 124°
2026-05-08 17:40 55.00156 14.60209 25932 ft 433 kts 124°
2026-05-08 17:40 54.98495 14.64628 26409 ft 436 kts 124°
2026-05-08 17:40 54.96821 14.69075 26876 ft 439 kts 124°
2026-05-08 17:41 54.95138 14.73537 27340 ft 442 kts 124°
2026-05-08 17:41 54.93441 14.78027 27786 ft 445 kts 124°
2026-05-08 17:41 54.91735 14.82536 28219 ft 448 kts 124°
2026-05-08 17:41 54.90032 14.87026 28646 ft 450 kts 124°
2026-05-08 17:42 54.88298 14.91590 29062 ft 453 kts 124°
2026-05-08 17:42 54.86550 14.96182 29468 ft 456 kts 124°
2026-05-08 17:42 54.84801 15.00772 29985 ft 456 kts 125°
2026-05-08 17:42 54.83054 15.05344 30564 ft 453 kts 125°
2026-05-08 17:43 54.81315 15.09890 31069 ft 451 kts 125°
2026-05-08 17:43 54.79599 15.14366 31451 ft 452 kts 125°
2026-05-08 17:43 54.77832 15.18965 31830 ft 453 kts 125°
2026-05-08 17:43 54.76108 15.23445 32253 ft 453 kts 125°
2026-05-08 17:44 54.74362 15.27975 32722 ft 451 kts 125°
2026-05-08 17:44 54.72618 15.32490 33160 ft 450 kts 125°
2026-05-08 17:44 54.70875 15.36997 33560 ft 451 kts 125°
2026-05-08 17:44 54.69129 15.41500 33971 ft 450 kts 125°
2026-05-08 17:45 54.67382 15.46001 34376 ft 450 kts 125°
2026-05-08 17:45 54.65634 15.50495 34676 ft 450 kts 125°
2026-05-08 17:45 54.63884 15.54989 34983 ft 451 kts 125°
2026-05-08 17:45 54.62135 15.59473 35309 ft 450 kts 126°
2026-05-08 17:46 54.60381 15.63953 35629 ft 450 kts 126°
2026-05-08 17:46 54.58587 15.68376 35917 ft 450 kts 127°
2026-05-08 17:46 54.56747 15.72754 36211 ft 450 kts 128°
2026-05-08 17:46 54.54915 15.77053 36530 ft 450 kts 128°
2026-05-08 17:47 54.53060 15.81393 36834 ft 450 kts 128°
2026-05-08 17:47 54.51199 15.85754 37112 ft 450 kts 128°
2026-05-08 17:47 54.49341 15.90115 37237 ft 454 kts 128°
2026-05-08 17:47 54.48105 15.93021 37224 ft 457 kts 128°
2026-05-08 17:48 54.43721 16.03330 37212 ft 453 kts 128°
2026-05-08 17:48 54.40014 16.12029 37218 ft 449 kts 128°
2026-05-08 17:49 54.36333 16.20633 37228 ft 449 kts 128°
2026-05-08 17:49 54.32617 16.29283 37224 ft 450 kts 128°
2026-05-08 17:50 54.28898 16.37913 37219 ft 451 kts 128°
2026-05-08 17:50 54.25157 16.46563 37211 ft 452 kts 128°
2026-05-08 17:51 54.21432 16.55147 37211 ft 453 kts 128°
2026-05-08 17:51 54.17667 16.63793 37208 ft 453 kts 128°
2026-05-08 17:52 54.13898 16.72419 37211 ft 453 kts 128°
2026-05-08 17:53 54.08244 16.85304 37198 ft 454 kts 128°
2026-05-08 17:53 54.04462 16.93892 37198 ft 453 kts 128°
2026-05-08 17:54 54.00671 17.02464 37190 ft 453 kts 129°
2026-05-08 17:54 53.96866 17.11011 37193 ft 453 kts 129°
2026-05-08 17:55 53.93057 17.19533 37193 ft 452 kts 129°
2026-05-08 17:55 53.89245 17.28038 37194 ft 452 kts 129°